Location: Derby
(52.9213°N, 1.4761°W)
Time: 14:43:47
(UTC+01:00)

SR - All Passes

Search period start: 18 May 2025 00:00
Search period end: 28 May 2025 00:00
Orbit: 569 x 857 km, 66.7° (Epoch: 17 May)

Date Brightness Start Highest point End Pass type
(mag) Time Alt. Az. Time Alt. Az. Time Alt. Az.
18 May - 00:57:23 10° SSE 01:01:51 24° ESE 01:06:20 10° ENE visible
18 May - 02:37:16 10° SW 02:43:06 86° NW 02:48:53 10° NE visible
18 May - 04:20:30 10° W 04:25:37 31° NNW 04:30:38 10° NE visible
18 May - 06:04:57 10° NW 06:09:06 20° N 06:13:08 10° NE daylight
18 May - 07:48:02 10° NW 07:52:43 26° NNE 07:57:09 10° ENE daylight
18 May - 09:29:57 10° NW 09:35:29 68° NE 09:40:34 10° SE daylight
18 May - 11:12:19 10° NW 11:16:49 27° WSW 11:21:00 10° SSW daylight
19 May - 00:05:52 10° SE 00:08:10 12° ESE 00:10:28 10° ENE visible
19 May - 01:43:12 10° SSW 01:48:51 57° ESE 01:54:29 10° NE visible
19 May - 03:25:22 10° WSW 03:30:54 43° NW 03:36:20 10° NE visible
19 May - 05:09:40 10° WNW 05:14:04 22° NNW 05:18:22 10° NE daylight
19 May - 06:53:27 10° NW 06:57:46 21° NNE 07:01:53 10° ENE daylight
19 May - 08:35:38 10° NW 08:40:57 43° NE 08:45:52 10° ESE daylight
19 May - 10:17:37 10° NW 10:22:53 51° WSW 10:27:43 10° SSE daylight
20 May - 00:49:44 10° S 00:54:49 33° ESE 00:59:54 10° NE visible
20 May - 02:30:34 10° SW 02:36:21 66° NW 02:42:04 10° NE visible
20 May - 04:14:17 10° W 04:19:08 26° NNW 04:23:51 10° NE visible
20 May - 05:58:37 10° NW 06:02:44 20° N 06:06:42 10° NE daylight
20 May - 07:41:19 10° NNW 07:46:13 30° NNE 07:50:50 10° E daylight
20 May - 09:23:10 10° NW 09:28:42 90° WSW 09:33:45 10° SE daylight
20 May - 11:06:03 10° WNW 11:09:41 19° WSW 11:13:09 10° SSW daylight
20 May - 23:57:12 10° SSE 00:00:59 18° ESE 00:04:47 10° ENE visible
21 May - 01:36:12 10° SSW 01:42:00 78° SE 01:47:45 10° NE visible
21 May - 03:19:01 10° W 03:24:19 35° NNW 03:29:30 10° NE visible
21 May - 05:03:28 10° NW 05:07:41 20° N 05:11:46 10° NE daylight
21 May - 06:46:51 10° NW 06:51:20 24° NNE 06:55:36 10° ENE daylight
21 May - 08:28:51 10° NW 08:34:17 55° NE 08:39:18 10° ESE daylight
21 May - 10:11:01 10° NW 10:15:53 35° WSW 10:20:23 10° S daylight
22 May - 00:42:22 10° S 00:47:50 45° ESE 00:53:17 10° NE visible
22 May - 02:24:00 10° WSW 02:29:39 51° NW 02:35:13 10° NE visible
22 May - 04:08:06 10° WNW 04:12:40 23° NNW 04:17:07 10° NE visible
22 May - 05:52:09 10° NW 05:56:19 20° N 06:00:20 10° NE daylight
22 May - 07:34:32 10° NW 07:39:40 36° NNE 07:44:26 10° E daylight
22 May - 09:16:26 10° NW 09:21:50 66° SW 09:26:47 10° SSE daylight
22 May - 11:00:17 10° WNW 11:02:28 13° WSW 11:04:37 10° SW daylight
22 May - 23:49:14 10° SSE 23:53:53 26° ESE 23:58:31 10° ENE visible
23 May - 01:29:21 10° SW 01:35:11 81° NW 01:40:56 10° NE visible
23 May - 03:12:44 10° W 03:17:46 30° NNW 03:22:40 10° NNE visible
23 May - 04:57:10 10° NW 05:01:17 20° N 05:05:15 10° NE daylight
23 May - 06:40:09 10° NW 06:44:51 27° NNE 06:49:17 10° E daylight
23 May - 08:22:02 10° NW 08:27:33 73° NE 08:32:35 10° SE daylight
23 May - 10:04:32 10° WNW 10:08:47 25° WSW 10:12:47 10° SSW daylight
23 May - 22:57:22 10° SE 23:00:08 14° ESE 23:02:54 10° ENE visible
24 May - 00:35:12 10° SSW 00:40:54 62° ESE 00:46:34 10° NE visible
24 May - 02:17:33 10° WSW 02:23:01 41° NW 02:28:21 10° NE visible
24 May - 04:01:54 10° WNW 04:06:14 21° NNW 04:10:26 10° NE visible
24 May - 05:45:36 10° NW 05:49:54 22° NNE 05:54:01 10° ENE daylight
24 May - 07:27:43 10° NW 07:33:03 45° NE 07:37:56 10° ESE daylight
24 May - 09:09:44 10° NW 09:14:53 46° WSW 09:19:36 10° S daylight
24 May - 23:41:37 10° S 23:46:50 35° ESE 23:52:00 10° NE visible
25 May - 01:22:40 10° SW 01:28:26 62° NW 01:34:05 10° NE visible
25 May - 03:06:30 10° WNW 03:11:16 25° NNW 03:15:53 10° NE visible
25 May - 04:50:47 10° NW 04:54:53 20° N 04:58:47 10° NE daylight
25 May - 06:33:24 10° NNW 06:38:19 31° NNE 06:42:56 10° E daylight
25 May - 08:15:15 10° NW 08:20:43 84° SW 08:25:43 10° SE daylight
25 May - 09:58:18 10° WNW 10:01:37 17° WSW 10:04:46 10° SW daylight
25 May - 22:48:55 10° SSE 22:52:57 20° ESE 22:56:59 10° ENE visible
26 May - 00:28:13 10° SW 00:34:02 83° SE 00:39:46 10° NE visible
26 May - 02:11:11 10° W 02:16:25 33° NNW 02:21:30 10° NNE visible
26 May - 03:55:39 10° NW 03:59:49 20° N 04:03:48 10° NE visible
26 May - 05:38:57 10° NW 05:43:26 24° NNE 05:47:42 10° ENE daylight
26 May - 07:20:54 10° NW 07:26:20 58° NE 07:31:18 10° ESE daylight
26 May - 09:03:08 10° NW 09:07:50 32° WSW 09:12:11 10° S daylight
26 May - 23:34:16 10° SSW 23:39:50 49° ESE 23:45:19 10° NE visible
27 May - 01:16:06 10° WSW 01:21:44 48° NW 01:27:13 10° NE visible
27 May - 03:00:17 10° WNW 03:04:47 23° NNW 03:09:07 10° NE visible
27 May - 04:44:17 10° NW 04:48:26 20° N 04:52:24 10° ENE daylight
27 May - 06:26:35 10° NW 06:31:43 38° NE 06:36:28 10° ESE daylight
27 May - 08:08:30 10° NW 08:13:49 60° WSW 08:18:39 10° SSE daylight
27 May - 09:52:52 10° W 09:54:22 11° W 09:55:49 10° WSW daylight
27 May - 22:41:02 10° SSE 22:45:50 28° ESE 22:50:36 10° NE visible
